Probability
0 0 0 0 0 0 0 0 0 0 0 0 0 0 0 0 0 0 0 0 0 1 0 0 0 0 1 2 4 5 9 13 13 15 16 14 10 8 9 9 8 8 7 6
0 0 0 0 0 0 0 0 0 0 0 0 0 0 0 0 0 0 0 0 0 1 0 0 0 0 0 1 1 3 6 9 10 11 14 15 13 10 8 6 6 7 8 8
0 0 0 0 0 0 0 0 0 0 0 0 0 0 0 0 0 0 0 0 0 0 0 0 0 0 0 0 0 0 2 4 5 8 12 15 15 11 7 5 4 5 7 8
0 0 0 0 0 0 0 0 0 0 0 0 0 0 0 0 0 0 0 0 0 0 0 0 0 0 0 0 0 0 1 2 4 8 11 13 13 10 7 5 4 4 6 7
0 0 0 0 0 0 0 0 0 0 0 0 0 0 0 0 0 0 0 0 0 0 0 0 0 0 0 0 0 0 2 3 5 8 10 10 9 7 6 5 4 5 6 6
0 0 0 0 0 0 0 0 0 0 0 0 0 0 0 0 0 0 0 0 0 0 0 0 0 0 0 0 0 0 2 2 4 7 9 8 6 5 4 3 4 5 7 8
0 0 0 0 0 0 0 0 0 0 0 0 0 0 0 0 0 0 0 0 0 0 0 0 0 0 0 0 0 0 1 1 2 5 7 6 5 4 3 2 4 6 9 11
0 0 0 0 0 0 0 0 0 0 0 0 0 0 0 0 0 0 0 0 0 0 0 0 0 0 0 0 0 0 0 0 1 3 5 5 5 5 4 3 4 6 8 10
0 0 0 0 0 0 0 0 0 0 0 0 0 0 0 0 0 0 0 0 0 0 0 0 0 0 0 0 0 0 0 0 1 3 3 3 3 3 3 5 5 5 6 7
0 0 0 0 0 0 0 0 0 0 0 0 0 0 0 0 0 0 0 0 0 0 0 0 0 0 0 0 0 0 0 0 1 2 2 1 1 1 2 4 5 4 4 4
0 0 0 0 0 0 0 0 0 0 0 0 0 0 0 0 0 0 0 0 0 0 0 0 0 0 0 0 0 0 0 0 0 1 1 0 0 0 0 2 3 2 1 1
0 0 0 0 0 0 0 0 0 0 0 0 0 0 0 0 0 0 0 0 0 0 0 0 0 0 0 0 0 0 0 0 0 0 0 0 0 0 0 0 1 1 0 0
0 0 0 0 0 0 0 0 0 0 0 0 0 0 0 0 0 0 0 0 0 0 0 0 0 0 0 0 0 0 0 0 0 0 0 0 0 0 0 0 0 0 0 0
0 0 0 0 0 0 0 0 0 0 0 0 0 0 0 0 0 0 0 0 0 0 0 0 0 0 0 0 0 0 0 0 0 0 0 0 0 0 0 0 0 0 0 0
0 0 0 0 0 0 0 0 0 0 0 0 0 0 0 0 0 0 0 0 0 0 0 0 0 0 0 0 0 0 0 0 0 0 0 0 0 0 0 0 0 0 0 0
0 0 0 0 0 0 0 0 0 0 0 0 0 0 0 0 0 0 0 0 0 0 0 0 0 0 0 0 0 0 0 0 0 0 0 0 0 0 0 0 0 0 0 0
0 0 0 0 0 0 0 0 0 0 0 0 0 0 0 0 0 0 0 0 0 0 0 0 0 0 0 0 0 0 0 0 0 0 0 0 0 0 0 0 0 0 0 0
0 0 0 0 0 0 0 0 0 0 0 0 0 0 0 0 0 0 0 0 0 0 0 0 0 0 0 0 0 0 0 0 0 0 0 0 0 0 0 0 0 0 0 0
0 0 0 0 0 0 0 0 0 0 0 0 0 0 0 0 0 0 0 0 0 0 0 0 0 0 0 0 0 0 0 0 0 0 0 0 0 0 0 0 0 0 0 0
0 0 0 0 0 0 0 0 0 0 0 0 0 0 0 0 0 0 0 0 0 0 0 0 0 0 0 0 0 0 0 0 0 0 0 0 0 0 0 0 0 0 0 0
0 0 0 0 0 0 0 0 0 0 0 0 0 0 0 0 0 0 0 0 0 0 0 0 0 0 0 0 0 0 0 0 0 0 0 0 0 0 0 0 0 0 0 0
0 0 0 0 0 0 0 0 0 0 0 0 0 0 0 0 0 0 0 0 0 0 0 0 0 0 0 0 0 0 0 0 0 0 0 0 0 0 0 0 0 0 0 0
0 0 0 0 0 0 0 0 0 0 0 0 0 0 0 0 0 0 0 0 0 0 0 0 0 0 0 0 0 0 0 0 0 0 0 0 0 0 0 0 0 0 0 0
0 0 0 0 0 0 0 0 0 0 0 0 0 0 0 0 0 0 0 0 0 0 0 0 0 0 0 0 0 0 0 0 0 0 0 0 0 0 0 0 0 0 0 0
0 0 0 0 0 0 0 0 0 0 0 0 0 0 0 0 0 0 0 0 0 0 0 0 0 0 0 0 0 0 0 0 0 0 0 0 0 0 0 0 0 0 0 0
0 0 0 0 0 0 0 0 0 0 0 0 0 0 0 0 0 0 0 0 0 0 0 0 0 0 0 0 0 0 0 0 0 0 0 0 0 0 0 0 0 0 0 0
Wind_Speed
0 2 2 3 4 4 4 4 4 5 4 3 2 3 5 4 3 2 2 3 2 1 1 1 2 1 0 3 5 8 8 9 8 7 7 7 7 6 6 7 10 11 11 11
2 0 3 4 2 2 3 3 3 2 2 2 1 3 3 3 1 1 1 1 1 0 1 2 3 2 1 1 2 4 6 7 8 7 6 5 5 5 6 5 8 10 11 11
1 2 3 2 1 0 1 2 3 2 2 0 1 1 2 3 3 3 3 2 2 2 2 2 3 1 1 0 2 2 5 7 7 7 5 4 4 4 5 6 6 9 10 11
1 3 2 1 2 2 1 2 2 2 1 1 2 0 3 4 4 4 4 5 4 4 3 3 2 2 1 0 1 2 3 4 5 6 6 8 6 6 6 6 6 7 9 10
1 3 3 2 3 3 2 3 2 1 0 1 2 1 3 4 5 5 6 6 5 4 4 3 2 1 1 0 1 2 3 2 3 5 6 7 6 5 4 6 7 7 7 8
1 1 2 3 3 2 2 2 1 1 1 1 3 1 3 4 5 5 6 6 5 4 4 3 3 2 2 1 2 2 3 2 3 4 5 6 6 5 5 7 7 6 5 6
1 1 2 2 1 1 2 2 1 1 1 2 2 1 2 4 5 4 5 5 5 5 5 4 4 4 3 2 2 2 2 2 2 3 4 5 5 5 6 6 6 6 5 5
1 2 3 3 3 2 2 3 3 2 2 2 1 1 3 5 5 5 5 5 5 6 5 6 6 5 4 3 2 2 1 1 1 2 2 3 3 3 3 5 4 4 4 5
0 1 2 2 2 2 1 2 2 1 1 1 2 1 1 5 6 7 6 6 7 7 7 7 6 6 5 5 4 2 1 1 0 1 2 3 2 2 3 3 4 4 4 3
0 1 1 2 1 2 2 1 1 0 1 2 2 1 2 4 5 6 7 7 7 7 7 7 7 7 6 5 4 4 3 2 1 0 0 1 1 2 2 2 3 4 4 4
1 1 1 1 1 2 1 1 1 1 2 1 1 3 4 3 3 4 6 6 7 7 7 7 7 7 6 6 5 5 4 4 3 2 0 0 1 1 3 3 3 3 4 5
0 0 1 0 1 2 2 1 1 1 1 1 0 3 4 3 4 4 5 6 7 7 7 7 7 7 6 6 6 5 5 4 4 3 2 1 1 1 1 2 2 3 3 4
2 2 1 3 3 1 1 1 1 0 1 0 1 2 4 4 4 5 6 6 7 7 8 7 7 7 7 7 6 5 5 4 4 3 2 2 1 1 1 1 2 2 3 3
2 0 1 1 2 0 1 0 1 2 1 1 1 1 1 3 4 5 6 6 7 7 7 8 7 7 7 7 6 5 5 4 4 3 2 2 2 2 1 1 1 2 2 3
1 1 2 2 1 0 0 0 2 3 2 1 1 1 1 2 3 4 5 6 7 8 8 8 7 7 7 7 6 6 5 5 4 3 3 2 2 2 1 1 1 2 2 2
0 1 1 1 2 1 1 2 2 3 3 3 3 2 2 2 2 4 5 6 6 7 7 8 7 7 7 7 7 6 6 5 5 4 3 3 2 2 2 2 2 2 2 2
2 2 2 1 1 2 3 3 4 3 3 3 3 1 1 2 2 3 3 4 5 6 7 8 7 7 7 7 7 6 6 5 4 4 3 3 3 3 2 2 2 2 2 2
3 2 1 0 1 3 2 2 1 3 2 2 2 0 1 2 3 2 3 4 6 7 7 7 7 7 7 7 6 6 5 5 4 4 4 3 3 3 3 3 3 3 2 3
1 2 2 2 2 3 2 2 2 3 2 3 3 2 1 3 2 1 2 5 6 6 6 7 7 7 7 7 6 5 5 5 5 5 5 4 4 3 3 3 3 3 3 3
1 1 2 2 3 4 2 3 2 3 3 3 3 2 1 1 3 1 3 5 6 6 6 6 7 7 6 7 6 5 5 5 5 5 5 5 4 4 4 3 3 3 3 3
4 4 4 4 4 4 2 4 4 5 1 4 3 3 2 2 3 3 4 5 6 6 7 7 6 6 6 7 6 6 5 6 6 6 5 5 4 4 3 3 3 2 2 2
7 6 6 5 6 5 6 7 6 0 3 3 3 2 3 2 2 3 4 4 5 6 7 7 6 6 6 6 6 6 6 6 6 5 5 5 4 4 3 3 2 2 2 3
7 5 3 6 3 3 6 4 1 2 3 3 3 2 2 3 3 3 4 4 5 6 6 6 7 7 6 6 6 6 7 7 6 6 5 5 4 4 3 3 2 2 2 2
5 3 4 5 6 5 5 4 3 3 3 3 2 2 3 3 3 4 4 4 5 5 6 6 7 7 7 6 6 6 6 6 6 5 5 4 4 4 3 2 2 2 2 2
5 7 6 6 4 4 7 8 7 5 3 3 2 2 3 3 4 4 5 5 5 5 5 6 6 7 7 7 7 6 6 6 6 5 5 5 4 3 3 2 2 2 2 2
8 10 9 7 7 6 5 7 8 7 6 5 4 3 3 4 5 5 5 5 5 5 5 6 7 7 7 7 7 6 6 6 5 5 4 4 3 3 3 2 2 1 3 3
Wind_Direction
253 217 256 287 275 271 259 248 269 292 297 293 257 289 315 317 280 236 220 203 178 202 265 107 110 105 169 152 177 180 183 183 175 176 176 177 183 182 188 195 196 197 196 194
172 266 315 302 285 250 228 239 268 302 314 290 285 306 329 336 316 295 203 158 120 121 96 78 85 64 33 118 157 180 186 184 181 185 178 179 179 186 190 194 200 201 200 198
77 350 321 287 300 343 304 269 279 295 342 225 247 18 58 62 59 55 62 78 71 51 55 62 68 64 39 86 176 195 192 187 180 180 173 173 174 180 188 194 198 202 201 200
28 341 312 320 352 332 352 331 280 263 275 26 327 77 61 47 54 53 50 52 43 32 39 55 53 29 27 208 177 202 189 191 181 175 181 186 196 204 201 193 197 200 203 200
45 353 344 353 344 327 347 332 311 267 89 52 7 260 68 47 51 43 37 36 28 26 30 36 25 346 330 59 143 183 169 174 187 190 190 196 207 210 202 193 195 198 201 202
31 336 332 334 327 316 306 293 242 201 222 76 6 327 64 32 10 19 28 28 22 31 36 23 5 4 5 49 115 133 145 161 178 179 188 198 204 205 208 200 194 198 199 199
51 66 15 322 312 38 342 295 200 138 91 56 18 352 51 19 7 10 15 18 20 31 38 30 17 19 19 47 79 110 141 171 171 161 180 197 197 196 205 209 202 199 197 195
98 77 20 359 345 336 359 332 349 20 64 72 49 27 47 21 31 40 38 33 34 33 34 31 22 17 17 31 56 83 94 117 157 156 179 196 191 199 205 208 202 204 202 197
69 66 30 358 345 319 350 34 353 30 64 81 67 53 70 35 39 42 41 38 37 29 26 25 25 24 20 23 26 46 55 34 96 176 186 179 183 205 204 204 199 205 210 199
324 128 15 331 250 55 355 5 256 312 66 94 89 52 9 359 21 31 30 26 25 22 24 24 24 22 19 21 19 27 35 1 340 49 132 149 183 216 208 205 209 207 207 200
200 120 48 33 12 4 38 53 6 54 348 314 101 75 22 9 20 25 22 18 16 14 16 20 21 19 17 18 19 23 22 16 15 16 4 168 240 230 197 202 210 211 208 202
168 130 88 356 5 321 309 323 290 310 71 335 43 72 36 31 34 29 22 20 22 21 17 18 19 18 17 13 12 12 9 9 6 360 358 1 313 261 185 196 216 219 212 209
172 196 164 158 161 161 283 312 257 22 93 183 168 98 51 41 39 27 24 20 21 20 18 17 18 16 12 7 8 7 2 356 355 358 1 344 322 296 233 217 224 225 216 213
182 190 302 37 53 147 242 56 179 182 190 170 205 150 50 22 17 16 16 12 16 20 19 15 12 11 6 1 2 1 359 353 350 349 349 335 315 292 270 248 235 225 217 212
200 134 89 42 7 160 81 178 172 192 228 231 180 219 322 349 356 7 9 7 13 15 14 11 8 3 358 356 356 357 353 351 347 344 341 334 318 301 277 251 243 235 226 219
149 148 138 95 47 53 318 276 217 223 230 227 251 281 351 348 10 12 8 7 6 4 3 0 360 355 352 349 346 345 345 344 341 340 337 331 318 305 285 274 258 237 227 220
157 170 197 193 326 272 257 250 211 192 195 214 236 274 12 346 346 349 347 355 358 355 352 350 349 346 342 340 337 338 339 337 335 332 328 322 310 298 289 275 257 246 237 227
165 164 195 233 247 239 76 58 192 196 212 222 242 316 352 331 316 324 342 352 352 349 345 342 340 337 334 332 332 334 334 334 333 329 327 323 307 290 281 268 256 250 240 227
251 192 180 209 251 265 197 184 189 206 228 213 227 243 344 344 293 240 30 356 345 342 338 334 332 328 328 333 333 331 333 336 335 332 329 322 309 290 274 266 261 255 243 229
110 216 207 199 237 243 131 139 166 209 226 164 190 202 218 307 281 324 359 340 339 341 340 335 332 331 334 338 335 331 333 333 331 329 323 316 307 296 283 274 270 263 246 229
173 186 204 212 243 261 132 145 170 212 139 136 174 183 195 239 295 329 327 330 335 337 338 338 335 335 335 335 335 330 330 329 329 324 320 318 314 309 296 284 273 257 230 218
190 186 194 195 220 234 143 160 199 214 92 146 171 193 218 255 293 304 313 321 327 331 333 336 334 333 333 332 331 327 325 326 324 320 317 318 319 317 300 284 275 254 224 213
215 215 207 212 219 69 164 184 157 130 164 172 187 209 222 252 273 288 299 308 316 322 326 329 329 326 329 330 327 321 322 323 321 317 315 316 317 313 306 291 270 253 226 213
210 205 221 240 239 213 202 204 194 187 188 179 190 203 224 256 272 281 290 298 308 314 319 321 320 318 319 324 321 319 319 320 317 312 310 310 310 311 311 305 277 251 237 225
192 179 209 238 236 212 217 211 202 189 181 178 187 220 235 251 266 277 285 291 297 304 309 310 309 310 312 316 315 317 318 318 314 311 309 308 304 303 302 294 286 271 263 249
189 189 194 215 196 193 196 184 186 187 193 195 203 230 247 254 264 274 281 288 291 296 302 304 304 305 307 309 308 312 314 313 308 304 307 306 302 301 299 295 298 298 266 281